| time (UTC) | temp F | wind direction | speed MPH | gust MPH | rain 1hr in | rain 24hr in | rain mn in | humidity % | barometer mb |
| 20260504012027 | 47 | 49 | 1.0 | 3.0 | 0.00 | 0.05 | 0.00 | 67 | 1016.9 |
| 20260504011537 | 47 | 0 | 0.0 | 0.0 | 0.00 | 0.05 | 0.00 | 67 | 1017.0 |
| 20260504011021 | 47 | 0 | 0.0 | 6.0 | 0.00 | 0.05 | 0.00 | 67 | 1016.9 |
| 20260504010525 | 47 | 0 | 1.0 | 6.0 | 0.00 | 0.05 | 0.00 | 67 | 1016.9 |
| 20260504010052 | 47 | 168 | 2.0 | 5.0 | 0.00 | 0.05 | 0.00 | 66 | 1016.8 |
| 20260504005522 | 48 | 155 | 1.0 | 4.0 | 0.00 | 0.05 | 0.00 | 65 | 1016.9 |
| 20260504005022 | 48 | 0 | 1.0 | 3.0 | 0.00 | 0.05 | 0.00 | 66 | 1017.0 |
| 20260504004536 | 48 | 155 | 2.0 | 3.0 | 0.00 | 0.05 | 0.00 | 65 | 1016.9 |
| 20260504004021 | 48 | 0 | 1.0 | 5.0 | 0.00 | 0.05 | 0.00 | 65 | 1016.9 |
| 20260504003521 | 48 | 155 | 2.0 | 7.0 | 0.00 | 0.05 | 0.00 | 65 | 1016.9 |
| 20260504003035 | 48 | 159 | 1.0 | 7.0 | 0.00 | 0.05 | 0.00 | 65 | 1016.9 |
| 20260504002525 | 48 | 161 | 5.0 | 7.0 | 0.00 | 0.05 | 0.00 | 65 | 1016.8 |
| 20260504002025 | 47 | 159 | 5.0 | 6.0 | 0.00 | 0.05 | 0.00 | 66 | 1016.8 |
| 20260504001541 | 48 | 169 | 3.0 | 6.0 | 0.00 | 0.05 | 0.00 | 66 | 1016.8 |
| 20260504001025 | 47 | 167 | 3.0 | 7.0 | 0.00 | 0.05 | 0.00 | 66 | 1016.9 |
| 20260504000525 | 48 | 188 | 3.0 | 7.0 | 0.00 | 0.05 | 0.00 | 66 | 1016.9 |
| 20260504000044 | 48 | 157 | 5.0 | 7.0 | 0.00 | 0.05 | 0.00 | 66 | 1016.9 |
| 20260503235522 | 48 | 163 | 4.0 | 6.0 | 0.00 | 0.05 | 0.00 | 66 | 1017.1 |
| 20260503235022 | 47 | 163 | 3.0 | 5.0 | 0.00 | 0.05 | 0.00 | 67 | 1016.9 |
| 20260503234539 | 47 | 169 | 3.0 | 7.0 | 0.00 | 0.05 | 0.00 | 67 | 1016.8 |
| 20260503234023 | 47 | 180 | 3.0 | 7.0 | 0.00 | 0.05 | 0.00 | 67 | 1016.9 |
| 20260503233525 | 47 | 165 | 3.0 | 6.0 | 0.00 | 0.05 | 0.00 | 67 | 1016.8 |
| 20260503233108 | 47 | 159 | 3.0 | 5.0 | 0.00 | 0.05 | 0.00 | 67 | 1017.0 |
| 20260503232526 | 47 | 171 | 2.0 | 4.0 | 0.00 | 0.05 | 0.00 | 67 | 1017.0 |
| 20260503232027 | 47 | 182 | 1.0 | 4.0 | 0.00 | 0.05 | 0.00 | 68 | 1016.9 |
| 20260503231538 | 48 | 169 | 2.0 | 4.0 | 0.00 | 0.05 | 0.00 | 67 | 1016.9 |
| 20260503231027 | 48 | 270 | 1.0 | 3.0 | 0.00 | 0.05 | 0.00 | 67 | 1016.9 |
| 20260503230527 | 48 | 281 | 0.0 | 1.0 | 0.00 | 0.05 | 0.00 | 66 | 1016.8 |
| 20260503230044 | 49 | 0 | 0.0 | 2.0 | 0.00 | 0.05 | 0.00 | 64 | 1016.9 |
| 20260503225527 | 49 | 0 | 0.0 | 2.0 | 0.00 | 0.05 | 0.00 | 63 | 1017.0 |
| 20260503225027 | 49 | 0 | 0.0 | 4.0 | 0.00 | 0.05 | 0.00 | 63 | 1017.0 |
| 20260503224542 | 49 | 0 | 1.0 | 4.0 | 0.00 | 0.05 | 0.00 | 63 | 1017.0 |
| 20260503224027 | 49 | 0 | 1.0 | 4.0 | 0.00 | 0.05 | 0.00 | 62 | 1017.0 |
| 20260503223527 | 49 | 292 | 2.0 | 4.0 | 0.00 | 0.05 | 0.00 | 62 | 1017.1 |
| 20260503223040 | 50 | 263 | 1.0 | 7.0 | 0.00 | 0.05 | 0.00 | 62 | 1017.0 |
| 20260503222526 | 50 | 271 | 1.0 | 7.0 | 0.00 | 0.05 | 0.00 | 62 | 1017.0 |
| 20260503222027 | 50 | 284 | 2.0 | 7.0 | 0.00 | 0.05 | 0.00 | 62 | 1017.1 |
| 20260503221541 | 50 | 257 | 3.0 | 7.0 | 0.00 | 0.05 | 0.00 | 62 | 1017.1 |
| 20260503221026 | 50 | 270 | 3.0 | 7.0 | 0.00 | 0.05 | 0.00 | 62 | 1017.1 |
| 20260503220528 | 50 | 280 | 3.0 | 7.0 | 0.00 | 0.05 | 0.00 | 62 | 1017.1 |
| 20260503220103 | 50 | 257 | 0.0 | 6.0 | 0.00 | 0.05 | 0.00 | 62 | 1017.2 |
| 20260503215526 | 50 | 257 | 1.0 | 6.0 | 0.00 | 0.06 | 0.00 | 62 | 1017.1 |
| 20260503215026 | 50 | 284 | 2.0 | 6.0 | 0.00 | 0.06 | 0.00 | 62 | 1017.2 |
| 20260503214545 | 50 | 260 | 1.0 | 6.0 | 0.00 | 0.06 | 0.00 | 62 | 1017.1 |
| 20260503214027 | 50 | 0 | 0.0 | 7.0 | 0.00 | 0.06 | 0.00 | 62 | 1017.2 |
| 20260503213529 | 50 | 257 | 2.0 | 7.0 | 0.00 | 0.06 | 0.00 | 62 | 1017.1 |
| 20260503213039 | 50 | 252 | 3.0 | 7.0 | 0.00 | 0.06 | 0.00 | 62 | 1017.1 |
| 20260503212529 | 50 | 251 | 2.0 | 5.0 | 0.00 | 0.06 | 0.00 | 62 | 1017.1 |
| 20260503212027 | 50 | 223 | 1.0 | 7.0 | 0.00 | 0.06 | 0.00 | 62 | 1017.1 |
| 20260503211545 | 50 | 242 | 2.0 | 7.0 | 0.00 | 0.06 | 0.00 | 62 | 1017.0 |
| 20260503211026 | 50 | 244 | 1.0 | 5.0 | 0.00 | 0.06 | 0.00 | 62 | 1017.1 |
| 20260503210527 | 50 | 239 | 2.0 | 5.0 | 0.00 | 0.06 | 0.00 | 61 | 1017.1 |
| 20260503210037 | 50 | 242 | 2.0 | 7.0 | 0.00 | 0.06 | 0.00 | 61 | 1017.1 |
| 20260503205527 | 50 | 250 | 4.0 | 8.0 | 0.00 | 0.06 | 0.06 | 61 | 1017.1 |
| 20260503205029 | 50 | 246 | 2.0 | 8.0 | 0.00 | 0.06 | 0.06 | 61 | 1017.2 |
| 20260503204547 | 50 | 238 | 2.0 | 9.0 | 0.00 | 0.06 | 0.06 | 61 | 1017.2 |
| 20260503204027 | 51 | 269 | 3.0 | 9.0 | 0.00 | 0.06 | 0.06 | 60 | 1017.2 |
| 20260503203526 | 51 | 264 | 5.0 | 9.0 | 0.00 | 0.06 | 0.06 | 60 | 1017.2 |
| 20260503203038 | 51 | 257 | 3.0 | 8.0 | 0.00 | 0.06 | 0.06 | 60 | 1017.3 |
| 20260503202527 | 51 | 233 | 2.0 | 9.0 | 0.00 | 0.06 | 0.06 | 60 | 1017.2 |
| 20260503202027 | 51 | 252 | 3.0 | 9.0 | 0.00 | 0.06 | 0.06 | 60 | 1017.3 |
| 20260503201558 | 51 | 269 | 3.0 | 10.0 | 0.00 | 0.06 | 0.06 | 60 | 1017.2 |
| 20260503201028 | 51 | 271 | 5.0 | 10.0 | 0.00 | 0.06 | 0.06 | 60 | 1017.3 |
| 20260503200526 | 51 | 288 | 4.0 | 10.0 | 0.00 | 0.06 | 0.06 | 60 | 1017.2 |
| 20260503200037 | 51 | 286 | 3.0 | 8.0 | 0.00 | 0.06 | 0.06 | 60 | 1017.2 |
| 20260503195528 | 51 | 282 | 1.0 | 8.0 | 0.00 | 0.06 | 0.06 | 60 | 1017.2 |
| 20260503195026 | 51 | 268 | 2.0 | 8.0 | 0.00 | 0.06 | 0.06 | 60 | 1017.2 |
| 20260503194537 | 51 | 286 | 3.0 | 8.0 | 0.00 | 0.06 | 0.06 | 59 | 1017.2 |
| 20260503194027 | 51 | 287 | 2.0 | 7.0 | 0.00 | 0.06 | 0.06 | 59 | 1017.2 |
| 20260503193530 | 51 | 0 | 1.0 | 7.0 | 0.00 | 0.06 | 0.06 | 59 | 1017.1 |
| 20260503193049 | 51 | 0 | 3.0 | 7.0 | 0.00 | 0.06 | 0.06 | 60 | 1017.1 |
| 20260503192526 | 51 | 269 | 1.0 | 6.0 | 0.00 | 0.06 | 0.06 | 60 | 1017.0 |
| 20260503192027 | 51 | 292 | 2.0 | 10.0 | 0.00 | 0.06 | 0.06 | 59 | 1017.0 |
| 20260503191539 | 51 | 273 | 5.0 | 11.0 | 0.00 | 0.06 | 0.06 | 60 | 1017.0 |
| 20260503191027 | 51 | 297 | 4.0 | 11.0 | 0.00 | 0.06 | 0.06 | 60 | 1017.0 |
| 20260503190527 | 51 | 312 | 6.0 | 11.0 | 0.00 | 0.06 | 0.06 | 59 | 1017.0 |
| 20260503190037 | 51 | 290 | 5.0 | 12.0 | 0.00 | 0.06 | 0.06 | 59 | 1016.9 |
| 20260503185526 | 51 | 277 | 6.0 | 12.0 | 0.00 | 0.06 | 0.06 | 58 | 1016.7 |
| 20260503185026 | 51 | 307 | 1.0 | 7.0 | 0.00 | 0.06 | 0.06 | 59 | 1016.8 |
| 20260503184538 | 51 | 284 | 1.0 | 5.0 | 0.00 | 0.06 | 0.06 | 59 | 1016.7 |
| 20260503184027 | 51 | 340 | 0.0 | 4.0 | 0.00 | 0.06 | 0.06 | 59 | 1016.7 |
| 20260503183528 | 51 | 0 | 1.0 | 7.0 | 0.00 | 0.06 | 0.06 | 59 | 1016.6 |
| 20260503183040 | 52 | 317 | 2.0 | 7.0 | 0.00 | 0.06 | 0.06 | 58 | 1016.5 |
| 20260503182526 | 51 | 315 | 2.0 | 6.0 | 0.00 | 0.06 | 0.06 | 59 | 1016.4 |
| 20260503182027 | 51 | 312 | 1.0 | 7.0 | 0.00 | 0.06 | 0.06 | 59 | 1016.3 |
| 20260503181611 | 51 | 309 | 2.0 | 11.0 | 0.00 | 0.06 | 0.06 | 59 | 1016.3 |
| 20260503181028 | 51 | 360 | 5.0 | 11.0 | 0.00 | 0.06 | 0.06 | 59 | 1016.2 |
| 20260503180530 | 51 | 355 | 3.0 | 11.0 | 0.00 | 0.06 | 0.06 | 60 | 1016.2 |
| 20260503180041 | 51 | 317 | 6.0 | 12.0 | 0.00 | 0.06 | 0.06 | 60 | 1016.2 |
| 20260503175526 | 51 | 301 | 6.0 | 12.0 | 0.00 | 0.06 | 0.06 | 60 | 1016.1 |
| 20260503175026 | 51 | 332 | 4.0 | 14.0 | 0.00 | 0.06 | 0.06 | 60 | 1016.1 |
| 20260503174537 | 52 | 342 | 5.0 | 14.0 | 0.00 | 0.06 | 0.06 | 60 | 1016.1 |
| 20260503174026 | 52 | 296 | 7.0 | 14.0 | 0.00 | 0.06 | 0.06 | 59 | 1016.0 |
| 20260503173526 | 52 | 314 | 8.0 | 14.0 | 0.00 | 0.06 | 0.06 | 59 | 1015.9 |
| 20260503173053 | 52 | 331 | 6.0 | 13.0 | 0.00 | 0.06 | 0.06 | 59 | 1015.9 |
| 20260503172526 | 52 | 321 | 6.0 | 13.0 | 0.00 | 0.06 | 0.06 | 59 | 1015.8 |
| 20260503172027 | 52 | 313 | 4.0 | 12.0 | 0.00 | 0.06 | 0.06 | 60 | 1015.8 |
| 20260503171539 | 52 | 320 | 6.0 | 12.0 | 0.00 | 0.06 | 0.06 | 60 | 1015.8 |
| 20260503171027 | 52 | 317 | 6.0 | 12.0 | 0.00 | 0.06 | 0.06 | 59 | 1015.7 |
| 20260503170527 | 52 | 333 | 7.0 | 18.0 | 0.00 | 0.06 | 0.06 | 59 | 1015.6 |
| 20260503150526 | 55 | 5 | 12.0 | 23.0 | 0.00 | 0.06 | 0.06 | 48 | 1014.7 |
| 20260503131027 | 53 | 355 | 12.0 | 20.0 | 0.00 | 0.06 | 0.06 | 56 | 1015.0 |
| 20260503130526 | 54 | 317 | 6.0 | 17.0 | 0.00 | 0.06 | 0.06 | 55 | 1014.9 |
| 20260503110526 | 51 | 314 | 10.0 | 22.0 | 0.00 | 0.06 | 0.06 | 61 | 1015.1 |
| 20260503081536 | 52 | 5 | 7.0 | 17.0 | 0.00 | 0.06 | 0.06 | 64 | 1014.6 |
| 20260503081026 | 51 | 355 | 10.0 | 17.0 | 0.00 | 0.06 | 0.06 | 64 | 1014.5 |
| 20260503080526 | 51 | 338 | 9.0 | 17.0 | 0.00 | 0.06 | 0.06 | 64 | 1014.7 |
| 20260503072529 | 49 | 301 | 2.0 | 9.0 | 0.00 | 0.06 | 0.06 | 75 | 1014.5 |
| 20260503072025 | 48 | 245 | 4.0 | 9.0 | 0.00 | 0.06 | 0.06 | 75 | 1014.5 |
| 20260503071537 | 48 | 236 | 3.0 | 10.0 | 0.00 | 0.06 | 0.06 | 76 | 1014.4 |
| 20260503071026 | 48 | 292 | 4.0 | 10.0 | 0.00 | 0.06 | 0.06 | 76 | 1014.7 |
| 20260503070526 | 47 | 263 | 3.0 | 9.0 | 0.00 | 0.06 | 0.06 | 77 | 1014.8 |
| 20260503055026 | 43 | 209 | 2.0 | 6.0 | 0.00 | 0.06 | 0.06 | 81 | 1015.0 |
| 20260503054532 | 43 | 305 | 1.0 | 8.0 | 0.01 | 0.06 | 0.06 | 82 | 1015.2 |
| 20260503054025 | 43 | 301 | 3.0 | 8.0 | 0.01 | 0.06 | 0.06 | 81 | 1015.2 |
| 20260503053526 | 43 | 336 | 3.0 | 13.0 | 0.02 | 0.06 | 0.06 | 82 | 1015.3 |
| 20260503053040 | 43 | 14 | 3.0 | 13.0 | 0.03 | 0.06 | 0.06 | 82 | 1015.3 |
| 20260503052530 | 43 | 338 | 7.0 | 13.0 | 0.03 | 0.06 | 0.06 | 81 | 1015.3 |
| 20260503052025 | 43 | 34 | 7.0 | 15.0 | 0.04 | 0.06 | 0.06 | 82 | 1015.4 |
| 20260503051536 | 43 | 22 | 5.0 | 15.0 | 0.04 | 0.06 | 0.06 | 83 | 1015.4 |
| 20260503051025 | 43 | 74 | 5.0 | 16.0 | 0.04 | 0.05 | 0.05 | 83 | 1015.1 |
| 20260503050525 | 43 | 59 | 6.0 | 17.0 | 0.04 | 0.05 | 0.05 | 83 | 1015.2 |
| 20260503050037 | 43 | 59 | 7.0 | 17.0 | 0.04 | 0.05 | 0.05 | 83 | 1015.2 |
| 20260503045526 | 43 | 360 | 8.0 | 15.0 | 0.04 | 0.05 | 0.05 | 83 | 1015.1 |
| 20260503045029 | 44 | 19 | 6.0 | 13.0 | 0.03 | 0.04 | 0.04 | 83 | 1014.9 |
| 20260503044604 | 44 | 343 | 5.0 | 15.0 | 0.03 | 0.04 | 0.04 | 83 | 1014.9 |
| 20260503044025 | 44 | 360 | 6.0 | 15.0 | 0.03 | 0.03 | 0.03 | 82 | 1015.0 |
| 20260503043525 | 44 | 28 | 7.0 | 15.0 | 0.03 | 0.03 | 0.03 | 82 | 1014.9 |
| 20260503043033 | 44 | 344 | 6.0 | 14.0 | 0.02 | 0.03 | 0.03 | 81 | 1014.9 |
| 20260503042525 | 45 | 17 | 5.0 | 19.0 | 0.01 | 0.02 | 0.02 | 80 | 1014.9 |
| 20260503042026 | 45 | 347 | 10.0 | 19.0 | 0.00 | 0.01 | 0.01 | 79 | 1014.8 |
| 20260503041535 | 45 | 360 | 12.0 | 19.0 | 0.00 | 0.01 | 0.01 | 78 | 1014.7 |
| 20260503041026 | 45 | 355 | 9.0 | 14.0 | 0.00 | 0.00 | 0.00 | 78 | 1014.7 |
| 20260503040525 | 46 | 351 | 3.0 | 9.0 | 0.00 | 0.00 | 0.00 | 78 | 1014.5 |
| 20260503040038 | 46 | 352 | 1.0 | 9.0 | 0.00 | 0.00 | 0.00 | 77 | 1014.5 |
| 20260503035527 | 46 | 0 | 4.0 | 9.0 | 0.00 | 0.00 | 0.00 | 76 | 1014.3 |
| 20260503035027 | 46 | 355 | 1.0 | 10.0 | 0.00 | 0.00 | 0.00 | 75 | 1014.4 |
| 20260503034534 | 46 | 17 | 4.0 | 10.0 | 0.00 | 0.00 | 0.00 | 76 | 1014.3 |
| 20260503034027 | 45 | 350 | 0.0 | 6.0 | 0.00 | 0.00 | 0.00 | 77 | 1014.1 |
| 20260503033525 | 45 | 0 | 2.0 | 6.0 | 0.00 | 0.00 | 0.00 | 76 | 1014.1 |
| 20260503033038 | 45 | 13 | 1.0 | 5.0 | 0.00 | 0.00 | 0.00 | 76 | 1014.1 |
| 20260503032525 | 45 | 23 | 2.0 | 6.0 | 0.00 | 0.00 | 0.00 | 76 | 1014.0 |
| 20260503032025 | 45 | 336 | 2.0 | 6.0 | 0.00 | 0.00 | 0.00 | 75 | 1014.0 |
| 20260503031537 | 45 | 310 | 2.0 | 6.0 | 0.00 | 0.00 | 0.00 | 75 | 1013.9 |
| 20260503031022 | 45 | 352 | 0.0 | 4.0 | 0.00 | 0.00 | 0.00 | 76 | 1013.8 |
| 20260503030526 | 45 | 350 | 2.0 | 6.0 | 0.00 | 0.00 | 0.00 | 77 | 1013.9 |
| 20260503030043 | 45 | 350 | 1.0 | 6.0 | 0.00 | 0.00 | 0.00 | 77 | 1013.9 |
| 20260503025526 | 45 | 351 | 2.0 | 6.0 | 0.00 | 0.00 | 0.00 | 77 | 1013.9 |
| 20260503025028 | 45 | 304 | 2.0 | 4.0 | 0.00 | 0.00 | 0.00 | 77 | 1014.0 |
| 20260503024536 | 45 | 257 | 0.0 | 5.0 | 0.00 | 0.00 | 0.00 | 77 | 1014.1 |
| 20260503024026 | 46 | 257 | 2.0 | 8.0 | 0.00 | 0.00 | 0.00 | 77 | 1014.0 |
| 20260503023526 | 46 | 259 | 3.0 | 9.0 | 0.00 | 0.00 | 0.00 | 76 | 1014.1 |
| 20260503023040 | 46 | 255 | 4.0 | 9.0 | 0.00 | 0.00 | 0.00 | 75 | 1014.1 |
| 20260503022525 | 46 | 0 | 1.0 | 7.0 | 0.00 | 0.00 | 0.00 | 75 | 1014.2 |
| 20260503022029 | 46 | 215 | 4.0 | 7.0 | 0.00 | 0.00 | 0.00 | 76 | 1014.1 |
| 20260503021533 | 46 | 160 | 1.0 | 4.0 | 0.00 | 0.00 | 0.00 | 76 | 1014.3 |
| 20260503021029 | 46 | 106 | 1.0 | 4.0 | 0.00 | 0.00 | 0.00 | 76 | 1014.3 |
| 20260503020524 | 45 | 0 | 1.0 | 8.0 | 0.00 | 0.00 | 0.00 | 75 | 1014.2 |
| 20260503020037 | 46 | 360 | 1.0 | 13.0 | 0.00 | 0.00 | 0.00 | 75 | 1014.1 |
| 20260503015523 | 46 | 327 | 5.0 | 13.0 | 0.00 | 0.00 | 0.00 | 74 | 1014.1 |
| 20260503015022 | 46 | 352 | 6.0 | 13.0 | 0.00 | 0.00 | 0.00 | 73 | 1014.1 |
| 20260503014543 | 46 | 273 | 2.0 | 7.0 | 0.00 | 0.00 | 0.00 | 73 | 1014.1 |
| 20260503014024 | 46 | 246 | 3.0 | 5.0 | 0.00 | 0.00 | 0.00 | 74 | 1014.0 |
| 20260503013522 | 46 | 265 | 0.0 | 4.0 | 0.00 | 0.00 | 0.00 | 74 | 1013.9 |
| 20260503013038 | 46 | 0 | 1.0 | 7.0 | 0.00 | 0.00 | 0.00 | 75 | 1014.1 |
| 20260503012600 | 46 | 265 | 2.0 | 8.0 | 0.00 | 0.00 | 0.00 | 74 | 1014.1 |